Time,TemperatureF,DewpointF,PressureIn,WindDirection,WindDirectionDegrees,WindSpeedMPH,WindSpeedGustMPH,Humidity,HourlyPrecipIn,Conditions,Clouds,dailyrainin,SoftwareType,DateUTC
2013-05-15 00:00:00,61.1,52.0,30.08,WSW,253,0.0,0.0,72,0.00,,,0.00,Wunderground v.1.15,2013-05-15 04:00:00,
2013-05-15 00:05:00,61.1,52.4,30.07,WSW,253,0.0,0.0,73,0.00,,,0.00,Wunderground v.1.15,2013-05-15 04:05:00,
2013-05-15 00:10:00,60.9,52.6,30.07,SW,225,0.0,0.0,74,0.00,,,0.00,Wunderground v.1.15,2013-05-15 04:10:00,
2013-05-15 00:15:00,61.1,52.4,30.07,SW,225,0.0,0.0,73,0.00,,,0.00,Wunderground v.1.15,2013-05-15 04:15:00,
2013-05-15 00:20:00,61.2,52.5,30.07,SW,225,0.0,0.0,73,0.00,,,0.00,Wunderground v.1.15,2013-05-15 04:20:00,
2013-05-15 00:25:00,61.3,52.6,30.08,SW,225,0.0,0.0,73,0.00,,,0.00,Wunderground v.1.15,2013-05-15 04:25:00,
2013-05-15 00:30:00,61.3,52.2,30.08,SW,225,0.0,0.0,72,0.00,,,0.00,Wunderground v.1.15,2013-05-15 04:30:00,
2013-05-15 00:35:00,61.4,52.3,30.08,SW,225,0.0,0.0,72,0.00,,,0.00,Wunderground v.1.15,2013-05-15 04:35:00,
2013-05-15 00:40:00,61.6,52.5,30.08,SW,225,0.0,0.0,72,0.00,,,0.00,Wunderground v.1.15,2013-05-15 04:40:00,
2013-05-15 00:45:00,62.0,52.9,30.08,SW,225,0.0,0.0,72,0.00,,,0.00,Wunderground v.1.15,2013-05-15 04:45:00,
2013-05-15 00:50:00,62.2,52.7,30.08,SW,225,0.0,0.0,71,0.00,,,0.00,Wunderground v.1.15,2013-05-15 04:50:00,
2013-05-15 00:55:00,62.2,52.7,30.08,SW,225,0.0,0.0,71,0.00,,,0.00,Wunderground v.1.15,2013-05-15 04:55:00,
2013-05-15 01:00:00,62.1,53.0,30.08,SW,225,0.0,0.0,72,0.00,,,0.00,Wunderground v.1.15,2013-05-15 05:00:00,
2013-05-15 01:05:00,61.9,52.8,30.08,SW,225,0.0,0.0,72,0.00,,,0.00,Wunderground v.1.15,2013-05-15 05:05:00,
2013-05-15 01:10:00,61.7,53.3,30.08,SW,225,0.0,0.0,74,0.00,,,0.00,Wunderground v.1.15,2013-05-15 05:10:00,
2013-05-15 01:15:00,61.5,53.1,30.08,SW,225,0.0,0.0,74,0.00,,,0.00,Wunderground v.1.15,2013-05-15 05:15:00,
2013-05-15 01:20:00,61.2,53.2,30.07,SW,225,0.0,0.0,75,0.00,,,0.00,Wunderground v.1.15,2013-05-15 05:20:00,
2013-05-15 01:25:00,60.9,52.9,30.07,SW,225,0.0,0.0,75,0.00,,,0.00,Wunderground v.1.15,2013-05-15 05:25:00,
2013-05-15 01:30:00,60.7,53.1,30.08,SW,225,0.0,0.0,76,0.00,,,0.00,Wunderground v.1.15,2013-05-15 05:30:00,
2013-05-15 01:35:00,60.6,52.6,30.08,WSW,257,0.0,0.0,75,0.00,,,0.00,Wunderground v.1.15,2013-05-15 05:35:00,
2013-05-15 01:40:00,60.6,53.0,30.07,WSW,256,0.0,0.0,76,0.00,,,0.00,Wunderground v.1.15,2013-05-15 05:40:00,
2013-05-15 01:45:00,60.5,52.9,30.07,WSW,257,0.0,0.0,76,0.00,,,0.00,Wunderground v.1.15,2013-05-15 05:45:00,
2013-05-15 01:50:00,60.4,52.8,30.07,WSW,256,0.0,0.0,76,0.00,,,0.00,Wunderground v.1.15,2013-05-15 05:50:00,
2013-05-15 01:55:00,60.4,52.8,30.07,WSW,257,0.0,0.0,76,0.00,,,0.00,Wunderground v.1.15,2013-05-15 05:55:00,
2013-05-15 02:00:00,60.4,52.8,30.07,WSW,256,0.0,0.0,76,0.00,,,0.00,Wunderground v.1.15,2013-05-15 06:00:00,
2013-05-15 02:05:00,60.4,52.8,30.07,WSW,257,0.0,0.0,76,0.00,,,0.00,Wunderground v.1.15,2013-05-15 06:05:00,
2013-05-15 02:10:00,60.4,52.8,30.07,WSW,256,0.0,0.0,76,0.00,,,0.00,Wunderground v.1.15,2013-05-15 06:10:00,
2013-05-15 02:15:00,60.4,53.2,30.07,WSW,256,0.0,0.0,77,0.00,,,0.00,Wunderground v.1.15,2013-05-15 06:15:00,
2013-05-15 02:20:00,60.3,53.1,30.07,WSW,257,0.0,0.0,77,0.00,,,0.00,Wunderground v.1.15,2013-05-15 06:20:00,
2013-05-15 02:25:00,60.2,53.0,30.07,WSW,257,0.0,0.0,77,0.00,,,0.00,Wunderground v.1.15,2013-05-15 06:25:00,
2013-05-15 02:30:00,60.1,52.9,30.07,WSW,257,0.0,0.0,77,0.00,,,0.00,Wunderground v.1.15,2013-05-15 06:30:00,
2013-05-15 02:35:00,60.0,53.1,30.07,WSW,256,0.0,0.0,78,0.00,,,0.00,Wunderground v.1.15,2013-05-15 06:35:00,
2013-05-15 02:40:00,60.0,53.1,30.07,WSW,257,0.0,0.0,78,0.00,,,0.00,Wunderground v.1.15,2013-05-15 06:40:00,
2013-05-15 02:45:00,60.1,52.9,30.07,WSW,256,0.0,0.0,77,0.00,,,0.00,Wunderground v.1.15,2013-05-15 06:45:00,
2013-05-15 02:50:00,60.1,52.9,30.07,WSW,256,0.0,0.0,77,0.00,,,0.00,Wunderground v.1.15,2013-05-15 06:50:00,
2013-05-15 02:55:00,60.1,53.2,30.07,WSW,257,0.0,0.0,78,0.00,,,0.00,Wunderground v.1.15,2013-05-15 06:55:00,
2013-05-15 03:00:00,60.0,53.1,30.07,WSW,256,0.0,0.0,78,0.00,,,0.00,Wunderground v.1.15,2013-05-15 07:00:00,
2013-05-15 03:05:00,59.8,52.9,30.07,WSW,257,0.0,0.0,78,0.00,,,0.00,Wunderground v.1.15,2013-05-15 07:05:00,
2013-05-15 03:15:00,59.6,53.1,30.06,WSW,257,0.0,0.0,79,0.00,,,0.00,Wunderground v.1.15,2013-05-15 07:15:00,
2013-05-15 03:20:00,59.4,52.9,30.06,WSW,256,0.0,0.0,79,0.00,,,0.00,Wunderground v.1.15,2013-05-15 07:20:00,
2013-05-15 03:25:00,59.3,52.8,30.06,WSW,257,0.0,0.0,79,0.00,,,0.00,Wunderground v.1.15,2013-05-15 07:25:00,
2013-05-15 03:30:00,59.3,52.8,30.06,WSW,257,0.0,0.0,79,0.00,,,0.00,Wunderground v.1.15,2013-05-15 07:30:00,
2013-05-15 03:35:00,59.3,52.8,30.06,WSW,257,0.0,0.0,79,0.00,,,0.00,Wunderground v.1.15,2013-05-15 07:35:00,
2013-05-15 03:40:00,59.3,52.8,30.06,WSW,257,0.0,0.0,79,0.00,,,0.00,Wunderground v.1.15,2013-05-15 07:40:00,
2013-05-15 03:45:00,59.3,52.8,30.06,WSW,257,0.0,0.0,79,0.00,,,0.00,Wunderground v.1.15,2013-05-15 07:45:00,
2013-05-15 03:50:00,59.5,53.0,30.06,WSW,257,0.0,0.0,79,0.00,,,0.00,Wunderground v.1.15,2013-05-15 07:50:00,
2013-05-15 03:55:00,59.6,53.1,30.06,WSW,256,0.0,0.0,79,0.00,,,0.00,Wunderground v.1.15,2013-05-15 07:55:00,
2013-05-15 04:00:00,59.5,53.0,30.06,WSW,257,0.0,0.0,79,0.00,,,0.00,Wunderground v.1.15,2013-05-15 08:00:00,
2013-05-15 04:05:00,59.5,53.0,30.06,WSW,257,0.0,0.0,79,0.00,,,0.00,Wunderground v.1.15,2013-05-15 08:05:00,
2013-05-15 04:15:00,59.4,52.9,30.06,WSW,257,0.0,0.0,79,0.00,,,0.00,Wunderground v.1.15,2013-05-15 08:15:00,
2013-05-15 04:20:00,59.1,52.9,30.06,WSW,256,0.0,0.0,80,0.00,,,0.00,Wunderground v.1.15,2013-05-15 08:20:00,
2013-05-15 04:25:00,59.0,52.8,30.06,WSW,257,0.0,0.0,80,0.00,,,0.00,Wunderground v.1.15,2013-05-15 08:25:00,
2013-05-15 04:30:00,59.0,53.2,30.06,WSW,256,0.0,0.0,81,0.00,,,0.00,Wunderground v.1.15,2013-05-15 08:30:00,
2013-05-15 04:35:00,58.7,52.9,30.06,WSW,257,0.0,0.0,81,0.00,,,0.00,Wunderground v.1.15,2013-05-15 08:35:00,
2013-05-15 04:40:00,58.6,53.1,30.06,WSW,256,0.0,0.0,82,0.00,,,0.00,Wunderground v.1.15,2013-05-15 08:40:00,
2013-05-15 04:45:00,58.6,52.8,30.06,WSW,257,0.0,0.0,81,0.00,,,0.00,Wunderground v.1.15,2013-05-15 08:45:00,
2013-05-15 04:50:00,59.0,52.8,30.06,WSW,257,0.0,0.0,80,0.00,,,0.00,Wunderground v.1.15,2013-05-15 08:50:00,
2013-05-15 04:55:00,59.0,53.2,30.06,WSW,256,0.0,0.0,81,0.00,,,0.00,Wunderground v.1.15,2013-05-15 08:55:00,
2013-05-15 05:00:00,59.0,52.5,30.06,WSW,257,0.0,0.0,79,0.00,,,0.00,Wunderground v.1.15,2013-05-15 09:00:00,
2013-05-15 05:05:00,59.4,53.2,30.06,WSW,256,0.0,0.0,80,0.00,,,0.00,Wunderground v.1.15,2013-05-15 09:05:00,
2013-05-15 05:10:00,59.3,52.8,30.06,WSW,257,0.0,0.0,79,0.00,,,0.00,Wunderground v.1.15,2013-05-15 09:10:00,
2013-05-15 05:15:00,59.1,52.9,30.06,WSW,256,0.0,0.0,80,0.00,,,0.00,Wunderground v.1.15,2013-05-15 09:15:00,
2013-05-15 05:20:00,59.0,52.8,30.06,WSW,257,0.0,0.0,80,0.00,,,0.00,Wunderground v.1.15,2013-05-15 09:20:00,
2013-05-15 05:25:00,59.0,52.8,30.06,WSW,257,0.0,0.0,80,0.00,,,0.00,Wunderground v.1.15,2013-05-15 09:25:00,
2013-05-15 05:30:00,59.1,52.9,30.06,WSW,256,0.0,0.0,80,0.00,,,0.00,Wunderground v.1.15,2013-05-15 09:30:00,
2013-05-15 05:35:00,59.2,52.7,30.07,WSW,256,0.0,0.0,79,0.00,,,0.00,Wunderground v.1.15,2013-05-15 09:35:00,
2013-05-15 05:40:00,59.3,52.8,30.07,WSW,256,0.0,0.0,79,0.00,,,0.00,Wunderground v.1.15,2013-05-15 09:40:00,
2013-05-15 05:45:00,59.5,53.0,30.07,WSW,257,0.0,0.0,79,0.00,,,0.00,Wunderground v.1.15,2013-05-15 09:45:00,
2013-05-15 05:50:00,59.5,53.0,30.07,WSW,257,0.0,0.0,79,0.00,,,0.00,Wunderground v.1.15,2013-05-15 09:50:00,
2013-05-15 05:55:00,59.5,53.0,30.06,WSW,257,0.0,0.0,79,0.00,,,0.00,Wunderground v.1.15,2013-05-15 09:55:00,
2013-05-15 06:00:00,59.5,53.0,30.06,WSW,257,0.0,0.0,79,0.00,,,0.00,Wunderground v.1.15,2013-05-15 10:00:00,
2013-05-15 06:05:00,59.4,52.9,30.06,WSW,256,0.0,0.0,79,0.00,,,0.00,Wunderground v.1.15,2013-05-15 10:05:00,
2013-05-15 06:10:00,59.2,53.0,30.07,WSW,256,0.0,0.0,80,0.00,,,0.00,Wunderground v.1.15,2013-05-15 10:10:00,
2013-05-15 06:15:00,59.0,52.8,30.07,WSW,257,0.0,0.0,80,0.00,,,0.00,Wunderground v.1.15,2013-05-15 10:15:00,
2013-05-15 06:20:00,59.0,53.2,30.07,WSW,257,0.0,0.0,81,0.00,,,0.00,Wunderground v.1.15,2013-05-15 10:20:00,
2013-05-15 06:25:00,59.0,53.2,30.07,WSW,257,0.0,0.0,81,0.00,,,0.00,Wunderground v.1.15,2013-05-15 10:25:00,
2013-05-15 06:30:00,58.9,53.1,30.07,South,179,0.0,0.0,81,0.00,,,0.00,Wunderground v.1.15,2013-05-15 10:30:00,
2013-05-15 06:35:00,58.9,53.1,30.08,South,179,0.0,0.0,81,0.00,,,0.00,Wunderground v.1.15,2013-05-15 10:35:00,
2013-05-15 06:40:00,59.0,52.8,30.08,South,179,0.0,0.0,80,0.00,,,0.00,Wunderground v.1.15,2013-05-15 10:40:00,
2013-05-15 06:45:00,58.9,53.1,30.08,South,179,0.0,0.0,81,0.00,,,0.00,Wunderground v.1.15,2013-05-15 10:45:00,
2013-05-15 06:50:00,58.6,52.8,30.08,South,173,0.0,0.0,81,0.00,,,0.00,Wunderground v.1.15,2013-05-15 10:50:00,
2013-05-15 06:55:00,58.3,52.8,30.08,South,173,0.0,0.0,82,0.00,,,0.00,Wunderground v.1.15,2013-05-15 10:55:00,
2013-05-15 07:00:00,58.1,53.0,30.08,South,173,0.0,0.0,83,0.00,,,0.00,Wunderground v.1.15,2013-05-15 11:00:00,
2013-05-15 07:15:00,58.0,52.9,30.08,South,173,0.0,0.0,83,0.00,,,0.00,Wunderground v.1.15,2013-05-15 11:15:00,
2013-05-15 07:20:00,58.1,53.0,30.08,South,173,0.0,0.0,83,0.00,,,0.00,Wunderground v.1.15,2013-05-15 11:20:00,
2013-05-15 07:25:00,58.3,53.2,30.08,South,173,0.0,0.0,83,0.00,,,0.00,Wunderground v.1.15,2013-05-15 11:25:00,
2013-05-15 07:30:00,58.5,53.0,30.08,South,173,0.0,0.0,82,0.00,,,0.00,Wunderground v.1.15,2013-05-15 11:30:00,
2013-05-15 07:35:00,58.6,53.5,30.08,South,173,0.0,0.0,83,0.00,,,0.00,Wunderground v.1.15,2013-05-15 11:35:00,
2013-05-15 07:40:00,58.9,53.4,30.08,South,173,0.0,0.0,82,0.00,,,0.00,Wunderground v.1.15,2013-05-15 11:40:00,
2013-05-15 07:45:00,59.0,53.8,30.08,SSW,211,0.0,0.0,83,0.00,,,0.00,Wunderground v.1.15,2013-05-15 11:45:00,
2013-05-15 07:50:00,59.0,53.5,30.08,SSW,210,0.0,0.0,82,0.00,,,0.00,Wunderground v.1.15,2013-05-15 11:50:00,
2013-05-15 07:55:00,59.0,53.5,30.08,SSW,211,0.0,0.0,82,0.00,,,0.00,Wunderground v.1.15,2013-05-15 11:55:00,
2013-05-15 08:00:00,59.1,53.6,30.09,SSW,211,0.0,0.0,82,0.00,,,0.00,Wunderground v.1.15,2013-05-15 12:00:00,
2013-05-15 08:05:00,59.3,53.8,30.09,SSW,210,0.0,0.0,82,0.00,,,0.00,Wunderground v.1.15,2013-05-15 12:05:00,
2013-05-15 08:10:00,59.4,54.2,30.09,SW,225,0.0,0.0,83,0.00,,,0.00,Wunderground v.1.15,2013-05-15 12:10:00,
2013-05-15 08:15:00,59.6,54.4,30.09,SW,222,0.0,0.0,83,0.00,,,0.00,Wunderground v.1.15,2013-05-15 12:15:00,
2013-05-15 08:20:00,60.0,54.5,30.09,ESE,109,0.0,0.0,82,0.00,,,0.00,Wunderground v.1.15,2013-05-15 12:20:00,
2013-05-15 08:25:00,60.4,54.9,30.09,ESE,109,0.0,0.0,82,0.00,,,0.00,Wunderground v.1.15,2013-05-15 12:25:00,
2013-05-15 08:30:00,60.8,54.9,30.09,ESE,109,0.0,0.0,81,0.00,,,0.00,Wunderground v.1.15,2013-05-15 12:30:00,
2013-05-15 08:35:00,61.4,55.5,30.09,ESE,109,0.0,0.0,81,0.00,,,0.00,Wunderground v.1.15,2013-05-15 12:35:00,
2013-05-15 08:40:00,62.0,55.1,30.09,ESE,109,0.0,0.0,78,0.00,,,0.00,Wunderground v.1.15,2013-05-15 12:40:00,
2013-05-15 08:45:00,62.6,55.3,30.09,ESE,109,0.0,0.0,77,0.00,,,0.00,Wunderground v.1.15,2013-05-15 12:45:00,
2013-05-15 08:50:00,63.4,55.0,30.09,ESE,115,0.0,0.0,74,0.00,,,0.00,Wunderground v.1.15,2013-05-15 12:50:00,
2013-05-15 08:55:00,64.1,56.0,30.09,ESE,115,0.0,0.0,75,0.00,,,0.00,Wunderground v.1.15,2013-05-15 12:55:00,
2013-05-15 09:00:00,64.6,56.5,30.09,ESE,123,0.0,0.0,75,0.00,,,0.00,Wunderground v.1.15,2013-05-15 13:00:00,
2013-05-15 09:05:00,65.2,57.1,30.09,ESE,123,0.0,0.0,75,0.00,,,0.00,Wunderground v.1.15,2013-05-15 13:05:00,
2013-05-15 09:20:00,66.9,58.0,30.09,ESE,123,0.0,0.0,73,0.00,,,0.00,Wunderground v.1.15,2013-05-15 13:20:00,
2013-05-15 09:25:00,67.7,58.7,30.09,ESE,123,0.0,0.0,73,0.00,,,0.00,Wunderground v.1.15,2013-05-15 13:25:00,
2013-05-15 09:30:00,68.6,58.8,30.09,ESE,123,0.0,0.0,71,0.00,,,0.00,Wunderground v.1.15,2013-05-15 13:30:00,
2013-05-15 09:40:00,69.5,59.3,30.09,ESE,123,0.0,0.0,70,0.00,,,0.00,Wunderground v.1.15,2013-05-15 13:40:00,
2013-05-15 09:45:00,69.8,57.9,30.09,ESE,123,0.0,0.0,66,0.00,,,0.00,Wunderground v.1.15,2013-05-15 13:45:00,
2013-05-15 09:50:00,70.3,58.8,30.09,ESE,123,0.0,0.0,67,0.00,,,0.00,Wunderground v.1.15,2013-05-15 13:50:00,
2013-05-15 09:55:00,70.7,59.2,30.09,ESE,123,0.0,0.0,67,0.00,,,0.00,Wunderground v.1.15,2013-05-15 13:55:00,
2013-05-15 10:00:00,71.0,58.6,30.09,SE,124,0.0,0.0,65,0.00,,,0.00,Wunderground v.1.15,2013-05-15 14:00:00,
2013-05-15 10:05:00,71.3,57.6,30.09,SE,130,0.0,2.0,62,0.00,,,0.00,Wunderground v.1.15,2013-05-15 14:05:00,
2013-05-15 10:10:00,71.5,57.8,30.09,SE,132,0.0,1.0,62,0.00,,,0.00,Wunderground v.1.15,2013-05-15 14:10:00,
2013-05-15 10:15:00,71.8,57.6,30.09,SSE,161,0.0,1.0,61,0.00,,,0.00,Wunderground v.1.15,2013-05-15 14:15:00,
2013-05-15 10:20:00,72.2,58.5,30.09,SSE,163,0.0,0.0,62,0.00,,,0.00,Wunderground v.1.15,2013-05-15 14:20:00,
2013-05-15 10:25:00,72.7,58.0,30.08,SSE,163,0.0,0.0,60,0.00,,,0.00,Wunderground v.1.15,2013-05-15 14:25:00,
2013-05-15 10:30:00,73.1,57.9,30.08,SSE,163,0.0,0.0,59,0.00,,,0.00,Wunderground v.1.15,2013-05-15 14:30:00,
2013-05-15 10:35:00,73.7,59.4,30.08,SSE,163,0.0,1.0,61,0.00,,,0.00,Wunderground v.1.15,2013-05-15 14:35:00,
2013-05-15 10:40:00,74.1,59.3,30.07,SSE,165,0.0,0.0,60,0.00,,,0.00,Wunderground v.1.15,2013-05-15 14:40:00,
2013-05-15 10:45:00,74.6,58.8,30.07,SSE,165,0.0,1.0,58,0.00,,,0.00,Wunderground v.1.15,2013-05-15 14:45:00,
2013-05-15 10:50:00,75.0,58.7,30.07,South,173,0.0,0.0,57,0.00,,,0.00,Wunderground v.1.15,2013-05-15 14:50:00,
2013-05-15 10:55:00,75.5,59.2,30.07,South,173,0.0,0.0,57,0.00,,,0.00,Wunderground v.1.15,2013-05-15 14:55:00,
2013-05-15 11:00:00,75.9,59.1,30.07,WSW,241,0.0,0.0,56,0.00,,,0.00,Wunderground v.1.15,2013-05-15 15:00:00,
2013-05-15 11:05:00,76.2,60.3,30.07,West,259,1.0,3.0,58,0.00,,,0.00,Wunderground v.1.15,2013-05-15 15:05:00,
2013-05-15 11:10:00,76.3,58.9,30.07,West,266,1.0,2.0,55,0.00,,,0.00,Wunderground v.1.15,2013-05-15 15:10:00,
2013-05-15 11:15:00,76.6,59.2,30.07,West,279,1.0,2.0,55,0.00,,,0.00,Wunderground v.1.15,2013-05-15 15:15:00,
2013-05-15 11:20:00,77.0,59.6,30.06,WSW,253,0.0,0.0,55,0.00,,,0.00,Wunderground v.1.15,2013-05-15 15:20:00,
2013-05-15 11:25:00,77.5,60.1,30.06,WSW,250,0.0,1.0,55,0.00,,,0.00,Wunderground v.1.15,2013-05-15 15:25:00,
2013-05-15 11:30:00,77.6,59.6,30.06,West,260,0.0,1.0,54,0.00,,,0.00,Wunderground v.1.15,2013-05-15 15:30:00,
2013-05-15 11:35:00,78.1,59.0,30.06,West,270,0.0,1.0,52,0.00,,,0.00,Wunderground v.1.15,2013-05-15 15:35:00,
2013-05-15 11:40:00,78.4,58.8,30.05,West,269,0.0,0.0,51,0.00,,,0.00,Wunderground v.1.15,2013-05-15 15:40:00,
2013-05-15 11:45:00,78.7,60.1,30.05,West,269,0.0,3.0,53,0.00,,,0.00,Wunderground v.1.15,2013-05-15 15:45:00,
2013-05-15 11:50:00,78.9,59.2,30.05,WSW,254,0.0,0.0,51,0.00,,,0.00,Wunderground v.1.15,2013-05-15 15:50:00,
2013-05-15 11:55:00,79.2,59.5,30.05,West,269,1.0,1.0,51,0.00,,,0.00,Wunderground v.1.15,2013-05-15 15:55:00,
2013-05-15 12:00:00,79.4,58.0,30.05,West,270,1.0,1.0,48,0.00,,,0.00,Wunderground v.1.15,2013-05-15 16:00:00,
2013-05-15 12:05:00,79.7,56.5,30.05,WSW,254,1.0,2.0,45,0.00,,,0.00,Wunderground v.1.15,2013-05-15 16:05:00,
2013-05-15 12:10:00,79.7,60.0,30.05,WSW,254,1.0,1.0,51,0.00,,,0.00,Wunderground v.1.15,2013-05-15 16:10:00,
2013-05-15 12:20:00,81.2,59.6,30.04,WSW,257,0.0,1.0,48,0.00,,,0.00,Wunderground v.1.15,2013-05-15 16:20:00,
2013-05-15 12:25:00,81.8,60.2,30.04,WSW,256,0.0,1.0,48,0.00,,,0.00,Wunderground v.1.15,2013-05-15 16:25:00,
2013-05-15 12:30:00,82.0,59.8,30.04,WSW,252,1.0,1.0,47,0.00,,,0.00,Wunderground v.1.15,2013-05-15 16:30:00,
2013-05-15 12:35:00,82.3,60.1,30.03,WSW,253,0.0,1.0,47,0.00,,,0.00,Wunderground v.1.15,2013-05-15 16:35:00,
2013-05-15 12:40:00,82.5,59.6,30.03,WSW,256,0.0,1.0,46,0.00,,,0.00,Wunderground v.1.15,2013-05-15 16:40:00,
2013-05-15 12:55:00,83.0,59.5,30.02,WSW,238,0.0,0.0,45,0.00,,,0.00,Wunderground v.1.15,2013-05-15 16:55:00,
2013-05-15 13:00:00,83.4,59.8,30.02,WSW,238,0.0,1.0,45,0.00,,,0.00,Wunderground v.1.15,2013-05-15 17:00:00,
2013-05-15 13:05:00,83.6,57.4,30.02,WSW,256,0.0,2.0,41,0.00,,,0.00,Wunderground v.1.15,2013-05-15 17:05:00,
2013-05-15 13:10:00,83.6,57.4,30.01,West,263,0.0,0.0,41,0.00,,,0.00,Wunderground v.1.15,2013-05-15 17:10:00,
2013-05-15 13:20:00,84.1,57.2,30.01,West,263,0.0,0.0,40,0.00,,,0.00,Wunderground v.1.15,2013-05-15 17:20:00,
2013-05-15 13:25:00,84.2,56.6,30.01,WSW,255,0.0,0.0,39,0.00,,,0.00,Wunderground v.1.15,2013-05-15 17:25:00,
2013-05-15 13:30:00,84.3,57.3,30.02,WSW,254,0.0,0.0,40,0.00,,,0.00,Wunderground v.1.15,2013-05-15 17:30:00,
2013-05-15 13:35:00,84.7,57.0,30.01,WSW,250,0.0,1.0,39,0.00,,,0.00,Wunderground v.1.15,2013-05-15 17:35:00,
2013-05-15 13:40:00,85.1,55.9,30.01,WSW,251,0.0,0.0,37,0.00,,,0.00,Wunderground v.1.15,2013-05-15 17:40:00,
2013-05-15 13:45:00,85.1,54.4,30.01,WSW,256,1.0,1.0,35,0.00,,,0.00,Wunderground v.1.15,2013-05-15 17:45:00,
2013-05-15 13:50:00,85.3,57.5,30.01,West,259,1.0,1.0,39,0.00,,,0.00,Wunderground v.1.15,2013-05-15 17:50:00,
2013-05-15 13:55:00,86.1,56.8,30.01,West,259,0.0,1.0,37,0.00,,,0.00,Wunderground v.1.15,2013-05-15 17:55:00,
2013-05-15 14:00:00,86.5,57.1,30.00,WSW,246,0.0,0.0,37,0.00,,,0.00,Wunderground v.1.15,2013-05-15 18:00:00,
2013-05-15 14:10:00,86.1,55.2,30.00,WSW,248,1.0,1.0,35,0.00,,,0.00,Wunderground v.1.15,2013-05-15 18:10:00,
2013-05-15 14:15:00,86.3,55.4,30.00,WSW,251,1.0,1.0,35,0.00,,,0.00,Wunderground v.1.15,2013-05-15 18:15:00,
2013-05-15 14:25:00,86.5,57.9,30.00,West,265,1.0,1.0,38,0.00,,,0.00,Wunderground v.1.15,2013-05-15 18:25:00,
2013-05-15 14:30:00,87.0,57.6,30.00,West,264,0.0,0.0,37,0.00,,,0.00,Wunderground v.1.15,2013-05-15 18:30:00,
2013-05-15 14:35:00,87.1,56.9,30.00,West,271,0.0,0.0,36,0.00,,,0.00,Wunderground v.1.15,2013-05-15 18:35:00,
2013-05-15 14:40:00,86.8,56.6,29.99,WSW,257,1.0,1.0,36,0.00,,,0.00,Wunderground v.1.15,2013-05-15 18:40:00,
2013-05-15 14:45:00,87.0,56.8,29.99,West,261,1.0,2.0,36,0.00,,,0.00,Wunderground v.1.15,2013-05-15 18:45:00,
2013-05-15 14:55:00,87.3,57.1,29.99,WSW,250,1.0,1.0,36,0.00,,,0.00,Wunderground v.1.15,2013-05-15 18:55:00,
2013-05-15 15:00:00,87.3,57.1,29.98,West,261,0.0,0.0,36,0.00,,,0.00,Wunderground v.1.15,2013-05-15 19:00:00,
2013-05-15 15:06:00,87.6,57.3,29.98,SW,234,0.0,0.0,36,0.00,,,0.00,Wunderground v.1.15,2013-05-15 19:06:00,
2013-05-15 15:15:00,88.5,60.4,29.97,SW,235,0.0,0.0,39,0.00,,,0.00,Wunderground v.1.15,2013-05-15 19:15:00,
2013-05-15 15:20:00,88.7,58.3,29.97,West,260,0.0,0.0,36,0.00,,,0.00,Wunderground v.1.15,2013-05-15 19:20:00,
2013-05-15 15:30:00,87.8,55.1,29.97,WSW,254,1.0,1.0,33,0.00,,,0.00,Wunderground v.1.15,2013-05-15 19:30:00,
2013-05-15 15:35:00,87.5,57.3,29.97,WSW,241,1.0,1.0,36,0.00,,,0.00,Wunderground v.1.15,2013-05-15 19:35:00,
2013-05-15 15:40:00,87.7,57.4,29.97,WSW,238,0.0,0.0,36,0.00,,,0.00,Wunderground v.1.15,2013-05-15 19:40:00,
2013-05-15 15:45:00,88.4,57.3,29.96,WSW,239,0.0,2.0,35,0.00,,,0.00,Wunderground v.1.15,2013-05-15 19:45:00,
2013-05-15 15:50:00,88.8,57.6,29.96,WSW,238,0.0,0.0,35,0.00,,,0.00,Wunderground v.1.15,2013-05-15 19:50:00,
2013-05-15 15:55:00,89.2,56.3,29.96,WSW,242,0.0,2.0,33,0.00,,,0.00,Wunderground v.1.15,2013-05-15 19:55:00,
2013-05-15 16:00:00,89.2,57.2,29.96,WSW,242,0.0,0.0,34,0.00,,,0.00,Wunderground v.1.15,2013-05-15 20:00:00,
2013-05-15 16:05:00,89.5,55.7,29.96,WSW,242,0.0,0.0,32,0.00,,,0.00,Wunderground v.1.15,2013-05-15 20:05:00,
2013-05-15 16:10:00,89.4,55.7,29.95,WSW,242,0.0,0.0,32,0.00,,,0.00,Wunderground v.1.15,2013-05-15 20:10:00,
2013-05-15 16:15:00,89.4,55.7,29.95,WSW,243,0.0,1.0,32,0.00,,,0.00,Wunderground v.1.15,2013-05-15 20:15:00,
2013-05-15 16:20:00,89.5,54.0,29.95,WSW,243,0.0,0.0,30,0.00,,,0.00,Wunderground v.1.15,2013-05-15 20:20:00,
2013-05-15 16:25:00,89.3,53.8,29.95,WSW,242,0.0,0.0,30,0.00,,,0.00,Wunderground v.1.15,2013-05-15 20:25:00,
2013-05-15 16:30:00,89.4,55.7,29.94,WSW,242,0.0,0.0,32,0.00,,,0.00,Wunderground v.1.15,2013-05-15 20:30:00,
2013-05-15 16:35:00,89.1,56.2,29.94,WSW,243,0.0,0.0,33,0.00,,,0.00,Wunderground v.1.15,2013-05-15 20:35:00,
2013-05-15 16:40:00,89.1,54.5,29.94,WSW,243,0.0,0.0,31,0.00,,,0.00,Wunderground v.1.15,2013-05-15 20:40:00,
2013-05-15 16:45:00,88.7,52.4,29.94,WSW,252,0.0,0.0,29,0.00,,,0.00,Wunderground v.1.15,2013-05-15 20:45:00,
2013-05-15 16:50:00,87.6,54.9,29.94,SW,232,1.0,1.0,33,0.00,,,0.00,Wunderground v.1.15,2013-05-15 20:50:00,
2013-05-15 16:55:00,87.0,55.2,29.94,WSW,250,1.0,1.0,34,0.00,,,0.00,Wunderground v.1.15,2013-05-15 20:55:00,
2013-05-15 17:00:00,86.9,56.7,29.94,WSW,249,0.0,0.0,36,0.00,,,0.00,Wunderground v.1.15,2013-05-15 21:00:00,
2013-05-15 17:05:00,87.0,56.8,29.94,WSW,250,0.0,0.0,36,0.00,,,0.00,Wunderground v.1.15,2013-05-15 21:05:00,
2013-05-15 17:10:00,86.8,55.9,29.94,WSW,251,0.0,0.0,35,0.00,,,0.00,Wunderground v.1.15,2013-05-15 21:10:00,
2013-05-15 17:15:00,86.3,53.0,29.93,WSW,250,1.0,1.0,32,0.00,,,0.00,Wunderground v.1.15,2013-05-15 21:15:00,
2013-05-15 17:20:00,85.7,56.4,29.93,WSW,240,1.0,1.0,37,0.00,,,0.00,Wunderground v.1.15,2013-05-15 21:20:00,
2013-05-15 17:25:00,86.1,56.0,29.93,WSW,240,0.0,1.0,36,0.00,,,0.00,Wunderground v.1.15,2013-05-15 21:25:00,
2013-05-15 17:30:00,86.5,55.6,29.93,WSW,240,0.0,0.0,35,0.00,,,0.00,Wunderground v.1.15,2013-05-15 21:30:00,
2013-05-15 17:35:00,86.4,57.0,29.93,WSW,240,0.0,0.0,37,0.00,,,0.00,Wunderground v.1.15,2013-05-15 21:35:00,
2013-05-15 17:45:00,86.9,57.5,29.93,WSW,240,0.0,0.0,37,0.00,,,0.00,Wunderground v.1.15,2013-05-15 21:45:00,
2013-05-15 17:50:00,86.8,56.6,29.93,WSW,240,0.0,0.0,36,0.00,,,0.00,Wunderground v.1.15,2013-05-15 21:50:00,
2013-05-15 17:55:00,86.7,57.3,29.92,WSW,240,0.0,0.0,37,0.00,,,0.00,Wunderground v.1.15,2013-05-15 21:55:00,
2013-05-15 18:00:00,86.6,57.2,29.92,NE,34,0.0,0.0,37,0.00,,,0.00,Wunderground v.1.15,2013-05-15 22:00:00,
2013-05-15 18:05:00,85.8,55.8,29.92,West,268,0.0,0.0,36,0.00,,,0.00,Wunderground v.1.15,2013-05-15 22:05:00,
2013-05-15 18:15:00,85.3,56.1,29.92,West,268,0.0,0.0,37,0.00,,,0.00,Wunderground v.1.15,2013-05-15 22:15:00,
2013-05-15 18:25:00,85.1,56.6,29.92,West,269,0.0,0.0,38,0.00,,,0.00,Wunderground v.1.15,2013-05-15 22:25:00,
2013-05-15 18:30:00,84.7,57.0,29.92,West,269,0.0,0.0,39,0.00,,,0.00,Wunderground v.1.15,2013-05-15 22:30:00,
2013-05-15 18:35:00,84.3,55.9,29.92,West,268,0.0,0.0,38,0.00,,,0.00,Wunderground v.1.15,2013-05-15 22:35:00,
2013-05-15 18:40:00,83.6,56.7,29.92,West,268,0.0,0.0,40,0.00,,,0.00,Wunderground v.1.15,2013-05-15 22:40:00,
2013-05-15 18:45:00,82.8,56.0,29.92,NW,321,0.0,0.0,40,0.00,,,0.00,Wunderground v.1.15,2013-05-15 22:45:00,
2013-05-15 18:50:00,82.0,56.6,29.92,WNW,293,0.0,0.0,42,0.00,,,0.00,Wunderground v.1.15,2013-05-15 22:50:00,
2013-05-15 18:55:00,81.2,56.6,29.92,WNW,292,0.0,0.0,43,0.00,,,0.00,Wunderground v.1.15,2013-05-15 22:55:00,
2013-05-15 19:00:00,80.6,55.4,29.92,WNW,293,0.0,0.0,42,0.00,,,0.00,Wunderground v.1.15,2013-05-15 23:00:00,
2013-05-15 19:05:00,80.0,56.7,29.92,WNW,293,0.0,0.0,45,0.00,,,0.00,Wunderground v.1.15,2013-05-15 23:05:00,
2013-05-15 19:10:00,79.4,56.2,29.92,WNW,292,0.0,0.0,45,0.00,,,0.00,Wunderground v.1.15,2013-05-15 23:10:00,
2013-05-15 19:15:00,78.9,55.8,29.92,WNW,292,0.0,0.0,45,0.00,,,0.00,Wunderground v.1.15,2013-05-15 23:15:00,
2013-05-15 19:20:00,78.5,55.4,29.92,WNW,292,0.0,0.0,45,0.00,,,0.00,Wunderground v.1.15,2013-05-15 23:20:00,
2013-05-15 19:25:00,78.0,54.9,29.92,WNW,292,0.0,0.0,45,0.00,,,0.00,Wunderground v.1.15,2013-05-15 23:25:00,
2013-05-15 19:30:00,77.6,56.9,29.92,WNW,292,0.0,0.0,49,0.00,,,0.00,Wunderground v.1.15,2013-05-15 23:30:00,
2013-05-15 19:40:00,76.6,55.4,29.92,WNW,292,0.0,0.0,48,0.00,,,0.00,Wunderground v.1.15,2013-05-15 23:40:00,
2013-05-15 19:45:00,76.0,54.3,29.92,WNW,292,0.0,0.0,47,0.00,,,0.00,Wunderground v.1.15,2013-05-15 23:45:00,
2013-05-15 19:50:00,75.4,54.3,29.92,WNW,292,0.0,0.0,48,0.00,,,0.00,Wunderground v.1.15,2013-05-15 23:50:00,
2013-05-15 19:55:00,74.9,55.0,29.92,WNW,292,0.0,0.0,50,0.00,,,0.00,Wunderground v.1.15,2013-05-15 23:55:00,
2013-05-15 20:00:00,74.4,54.5,29.92,WNW,291,0.0,0.0,50,0.00,,,0.00,Wunderground v.1.15,2013-05-16 00:00:00,
2013-05-15 20:05:00,73.9,54.1,29.92,WNW,292,0.0,0.0,50,0.00,,,0.00,Wunderground v.1.15,2013-05-16 00:05:00,
2013-05-15 20:10:00,73.5,55.3,29.92,WNW,292,0.0,0.0,53,0.00,,,0.00,Wunderground v.1.15,2013-05-16 00:10:00,
2013-05-15 20:15:00,73.0,54.3,29.92,WNW,293,0.0,0.0,52,0.00,,,0.00,Wunderground v.1.15,2013-05-16 00:15:00,
2013-05-15 20:20:00,72.5,54.4,29.92,WNW,293,0.0,0.0,53,0.00,,,0.00,Wunderground v.1.15,2013-05-16 00:20:00,
2013-05-15 20:25:00,72.1,54.0,29.93,WNW,292,0.0,0.0,53,0.00,,,0.00,Wunderground v.1.15,2013-05-16 00:25:00,
2013-05-15 20:30:00,71.6,53.6,29.92,WNW,292,0.0,0.0,53,0.00,,,0.00,Wunderground v.1.15,2013-05-16 00:30:00,
2013-05-15 20:35:00,71.3,53.3,29.92,WNW,292,0.0,0.0,53,0.00,,,0.00,Wunderground v.1.15,2013-05-16 00:35:00,
2013-05-15 20:40:00,71.1,53.6,29.92,WNW,293,0.0,0.0,54,0.00,,,0.00,Wunderground v.1.15,2013-05-16 00:40:00,
2013-05-15 20:45:00,70.9,53.4,29.92,WNW,293,0.0,0.0,54,0.00,,,0.00,Wunderground v.1.15,2013-05-16 00:45:00,
2013-05-15 20:50:00,70.7,53.7,29.93,WNW,293,0.0,0.0,55,0.00,,,0.00,Wunderground v.1.15,2013-05-16 00:50:00,
2013-05-15 21:00:00,70.4,54.0,29.93,WNW,292,0.0,0.0,56,0.00,,,0.00,Wunderground v.1.15,2013-05-16 01:00:00,
2013-05-15 21:15:00,69.9,54.4,29.93,WNW,292,0.0,0.0,58,0.00,,,0.00,Wunderground v.1.15,2013-05-16 01:15:00,
2013-05-15 21:25:00,69.7,54.3,29.93,WNW,292,0.0,0.0,58,0.00,,,0.00,Wunderground v.1.15,2013-05-16 01:25:00,
2013-05-15 21:30:00,69.6,54.6,29.93,WNW,293,0.0,0.0,59,0.00,,,0.00,Wunderground v.1.15,2013-05-16 01:30:00,
2013-05-15 21:35:00,69.5,54.5,29.94,WNW,292,0.0,0.0,59,0.00,,,0.00,Wunderground v.1.15,2013-05-16 01:35:00,
2013-05-15 21:40:00,69.4,54.9,29.94,WNW,293,0.0,0.0,60,0.00,,,0.00,Wunderground v.1.15,2013-05-16 01:40:00,
2013-05-15 21:50:00,69.2,54.7,29.95,WNW,292,0.0,0.0,60,0.00,,,0.00,Wunderground v.1.15,2013-05-16 01:50:00,
2013-05-15 21:55:00,68.9,54.9,29.95,WNW,293,0.0,0.0,61,0.00,,,0.00,Wunderground v.1.15,2013-05-16 01:55:00,
2013-05-15 22:00:00,68.8,54.8,29.95,WNW,293,0.0,0.0,61,0.00,,,0.00,Wunderground v.1.15,2013-05-16 02:00:00,
2013-05-15 22:05:00,68.7,54.7,29.95,WNW,292,0.0,0.0,61,0.00,,,0.00,Wunderground v.1.15,2013-05-16 02:05:00,
2013-05-15 22:10:00,68.7,54.7,29.95,WNW,293,0.0,0.0,61,0.00,,,0.00,Wunderground v.1.15,2013-05-16 02:10:00,
2013-05-15 22:15:00,68.6,54.6,29.95,WNW,293,0.0,0.0,61,0.00,,,0.00,Wunderground v.1.15,2013-05-16 02:15:00,
2013-05-15 22:25:00,68.3,54.8,29.96,WNW,292,0.0,0.0,62,0.00,,,0.00,Wunderground v.1.15,2013-05-16 02:25:00,
2013-05-15 22:30:00,68.2,54.7,29.96,WNW,293,0.0,0.0,62,0.00,,,0.00,Wunderground v.1.15,2013-05-16 02:30:00,
2013-05-15 22:35:00,67.9,54.8,29.95,WNW,293,0.0,0.0,63,0.00,,,0.00,Wunderground v.1.15,2013-05-16 02:35:00,
2013-05-15 22:45:00,67.4,54.8,29.96,WNW,293,0.0,0.0,64,0.00,,,0.00,Wunderground v.1.15,2013-05-16 02:45:00,
2013-05-15 22:55:00,67.0,54.4,29.96,WNW,292,0.0,0.0,64,0.00,,,0.00,Wunderground v.1.15,2013-05-16 02:55:00,
2013-05-15 23:00:00,66.8,54.7,29.96,WNW,293,0.0,0.0,65,0.00,,,0.00,Wunderground v.1.15,2013-05-16 03:00:00,
2013-05-15 23:05:00,66.7,54.6,29.96,WNW,293,0.0,0.0,65,0.00,,,0.00,Wunderground v.1.15,2013-05-16 03:05:00,
2013-05-15 23:20:00,66.8,55.1,29.96,WNW,293,0.0,0.0,66,0.00,,,0.00,Wunderground v.1.15,2013-05-16 03:20:00,
2013-05-15 23:25:00,66.8,55.1,29.96,WNW,293,0.0,0.0,66,0.00,,,0.00,Wunderground v.1.15,2013-05-16 03:25:00,
2013-05-15 23:30:00,66.8,55.1,29.96,WNW,292,0.0,0.0,66,0.00,,,0.00,Wunderground v.1.15,2013-05-16 03:30:00,
2013-05-15 23:35:00,66.8,55.1,29.96,WNW,293,0.0,0.0,66,0.00,,,0.00,Wunderground v.1.15,2013-05-16 03:35:00,
2013-05-15 23:40:00,66.6,54.9,29.96,WNW,292,0.0,0.0,66,0.00,,,0.00,Wunderground v.1.15,2013-05-16 03:40:00,
2013-05-15 23:50:00,66.0,55.1,29.96,WNW,293,0.0,0.0,68,0.00,,,0.00,Wunderground v.1.15,2013-05-16 03:50:00,
2013-05-15 23:55:00,65.8,54.9,29.96,WNW,292,0.0,0.0,68,0.00,,,0.00,Wunderground v.1.15,2013-05-16 03:55:00,